KN4RPA Weather Reports


time (UTC)temp
F
wind
direction
speed
knots
gust
knots
rain 1hr
in
rain 24hr
in
rain mn
in
humidity
%
barometer
mb
20260905004529 75 69 0.0 0.0 0.00 0.16 0.16 84 1010.2
20260905003028 75 69 0.0 0.0 0.00 0.16 0.16 84 1010.1
20260905001529 75 69 0.0 0.9 0.00 0.16 0.16 83 1010.1
20260905000033 76 69 0.0 0.0 0.00 0.16 0.16 82 1010.6
20260904234528 76 69 0.0 0.9 0.00 0.16 0.16 82 1010.8
20260904233026 77 69 0.0 0.9 0.00 0.16 0.16 81 1010.6
20260904231526 77 70 0.0 0.0 0.00 0.16 0.16 81 1010.4
20260904230026 78 70 0.0 0.0 0.00 0.16 0.16 79 1009.8
20260904224525 78 69 0.0 0.0 0.00 0.16 0.16 79 1010.1
20260904223025 79 70 0.0 0.9 0.00 0.16 0.16 78 1010.3
20260904221524 81 69 0.0 0.0 0.00 0.16 0.16 75 1010.4
20260904220024 83 69 0.0 7.8 0.00 0.16 0.16 71 1010.8
20260904214524 84 40 0.0 3.5 0.00 0.16 0.16 69 1012.0
20260904213023 85 17 0.0 1.7 0.00 0.16 0.16 66 1011.5
20260904211522 85 17 0.0 3.5 0.00 0.16 0.16 67 1010.9
20260904210024 86 10 0.0 0.0 0.00 0.16 0.16 67 1010.5
20260904204522 87 10 0.0 0.0 0.00 0.16 0.16 67 1010.3
20260904203022 87 10 0.0 0.0 0.00 0.16 0.16 64 1010.6
20260904201520 88 10 0.0 1.7 0.00 0.16 0.16 61 1010.4
20260904200020 88 10 0.0 0.9 0.00 0.16 0.16 62 1009.7
20260904194515 89 10 0.0 0.9 0.00 0.16 0.16 59 1010.5
20260904193015 90 10 0.0 2.6 0.00 0.16 0.16 55 1010.7
20260904191513 91 10 0.0 2.6 0.00 0.16 0.16 53 1010.8
20260904190011 91 9 0.0 1.7 0.00 0.16 0.16 54 1010.7
20260904184512 91 5 0.0 5.2 0.00 0.16 0.16 54 1011.0
20260904183007 90 5 0.0 2.6 0.00 0.16 0.16 53 1011.4
20260904181506 90 19 0.0 3.5 0.00 0.16 0.16 52 1011.6
20260904180006 90 5 0.0 2.6 0.00 0.16 0.16 52 1011.8
20260904174504 89 360 0.0 5.2 0.00 0.16 0.16 53 1011.9
20260904173003 88 29 0.0 4.3 0.00 0.16 0.16 55 1012.1
20260904171504 90 28 0.0 3.5 0.00 0.16 0.16 55 1012.1
20260904170100 88 30 0.0 2.6 0.00 0.16 0.16 54 1012.2
20260904164600 88 11 0.0 2.6 0.00 0.16 0.16 57 1012.5
20260904163058 88 28 1.7 7.8 0.00 0.16 0.16 54 1012.4
20260904161602 87 37 0.0 5.2 0.00 0.16 0.16 56 1012.7
20260904160053 87 9 0.0 3.5 0.00 0.16 0.16 58 1012.6
20260904154547 86 26 0.0 7.0 0.00 0.16 0.16 61 1012.7
20260904153043 84 48 0.0 4.3 0.00 0.16 0.16 62 1012.8
20260904151539 80 24 0.0 2.6 0.00 0.16 0.16 85 1012.9
20260904150035 79 24 0.0 0.9 0.00 0.16 0.16 89 1012.9
20260904144533 78 23 0.0 3.5 0.00 0.16 0.16 92 1013.0
20260904143035 77 33 0.0 0.9 0.00 0.16 0.16 93 1013.0
20260904141529 76 33 0.0 1.7 0.00 0.16 0.16 94 1012.9
20260904140027 75 32 0.0 0.9 0.00 0.16 0.16 94 1012.8
20260904134528 75 32 0.0 1.7 0.00 0.16 0.16 94 1012.9
20260904133025 75 32 0.0 3.5 0.00 0.16 0.16 94 1013.2
20260904131524 74 36 0.0 1.7 0.00 0.16 0.16 95 1013.1
20260904130022 74 42 0.0 1.7 0.00 0.16 0.16 95 1013.1
20260904124518 73 33 0.0 1.7 0.00 0.16 0.16 94 1013.0
20260904123017 73 33 0.0 0.0 0.00 0.16 0.16 95 1012.5
20260904121516 72 33 0.0 0.0 0.00 0.16 0.16 94 1012.5
20260904120017 72 33 0.0 0.0 0.01 0.16 0.16 94 1012.6
20260904114513 71 33 0.0 0.0 0.01 0.16 0.16 94 1012.5
20260904113011 71 33 0.0 0.0 0.01 0.16 0.16 94 1012.4
20260904111509 70 33 0.0 0.0 0.01 0.16 0.16 93 1012.3
20260904110008 70 33 0.0 0.0 0.00 0.15 0.15 93 1012.2
20260904104508 71 33 0.0 0.0 0.00 0.15 0.15 93 1012.1
20260904103008 71 33 0.0 0.0 0.00 0.15 0.15 93 1012.1
20260904101505 71 33 0.0 0.0 0.00 0.15 0.15 93 1012.1
20260904100004 71 33 0.0 0.0 0.00 0.15 0.15 92 1011.9
20260904094504 71 33 0.0 0.0 0.00 0.15 0.15 92 1011.9
20260904093003 71 33 0.0 0.9 0.00 0.15 0.15 92 1012.0
20260904091503 71 33 0.0 0.0 0.00 0.15 0.15 92 1011.9
20260904090006 71 33 0.0 0.0 0.00 0.15 0.15 92 1012.1
20260904084502 72 33 0.0 0.0 0.00 0.15 0.15 92 1012.0
20260904083147 72 33 0.0 0.0 0.00 0.15 0.15 91 1012.0
20260904081607 72 33 0.0 0.0 0.00 0.15 0.15 91 1012.1
20260904080059 71 33 0.0 0.0 0.00 0.15 0.15 90 1012.2
20260904074559 72 33 0.0 0.0 0.00 0.15 0.15 90 1011.9
20260904073100 72 33 0.0 0.0 0.00 0.15 0.15 90 1011.7
20260904071617 72 33 0.0 0.0 0.00 0.15 0.15 90 1011.6
20260904070113 72 33 0.0 0.0 0.00 0.15 0.15 89 1011.2
20260904064553 73 33 0.0 0.0 0.00 0.15 0.15 89 1011.2
20260904063101 73 33 0.0 0.0 0.00 0.15 0.15 88 1011.5
20260904061551 73 33 0.0 0.0 0.01 0.15 0.15 88 1011.5
20260904060050 73 33 0.0 0.9 0.15 0.15 0.15 87 1011.5
20260904054550 74 33 0.0 0.9 0.15 0.15 0.15 86 1012.3
20260904053055 74 33 0.0 0.0 0.15 0.15 0.15 84 1012.8
20260904051542 76 33 0.0 0.9 0.14 0.14 0.14 81 1013.3
20260904050039 77 28 0.9 11.3 0.00 0.00 0.00 76 1014.4
20260904044534 79 300 2.6 11.3 0.00 0.00 0.00 80 1014.5
20260904043037 81 34 1.7 5.2 0.00 0.00 0.00 86 1013.6
20260904041532 81 223 0.0 0.9 0.00 0.00 0.00 86 1012.4
20260904040033 81 223 0.0 0.9 0.00 0.00 0.00 86 1012.5
20260904034531 81 223 0.0 2.6 0.00 0.00 0.00 86 1012.1
20260904033031 81 222 0.0 0.9 0.00 0.00 0.00 86 1012.1
20260904031537 81 222 0.0 0.0 0.00 0.00 0.00 86 1011.7
20260904030029 81 222 0.0 0.0 0.00 0.00 0.00 85 1011.8
20260904024530 81 222 0.0 0.0 0.00 0.00 0.00 85 1011.9
20260904023031 81 222 0.0 0.0 0.00 0.00 0.00 85 1012.1
20260904021530 81 222 0.0 0.0 0.00 0.00 0.00 84 1012.0
20260904020028 81 222 0.0 0.0 0.00 0.00 0.00 83 1012.3
20260904014527 82 222 0.0 0.0 0.00 0.00 0.00 83 1012.2
20260904013026 82 222 0.0 0.0 0.00 0.00 0.00 82 1012.2
20260904011526 82 222 0.0 0.0 0.00 0.00 0.00 81 1012.4
20260904010026 83 222 0.0 0.0 0.00 0.00 0.00 80 1012.6